Location: Croissy-Beaubourg
(48.8283°N, 2.6696°E)
Time: 02:03:48
(UTC+00:00)

USA 215 - Pass Details

Date: 29 May 2022
Orbit: 1099 x 1108 km, 123.0° (Epoch: 10 June)

Event Time Altitude Azimuth Distance (km) Brightness Sun altitude
Rises 23:10:02 0° 55° (NE) 3,927 6.5 -19.0°
Reaches altitude 10° 23:12:35 10° 60° (ENE) 2,968 5.8 -19.0°
Maximum altitude 23:19:01 56° 138° (SE) 1,298 3.3 -19.2°
Enters shadow 23:22:54 25° 206° (SSW) 2,074 4.2 -19.2°
